KJ6EI Booth Bay CA current weather conditions

sailwx.info

Wind from 184 at 2 knots gusting 6

Air temperature 20.0° C
Dewpoint 12.5° C

Last reported at 2020-Aug-06 18:00 UTC.
Time now 2020-Aug-06 19:04 UTC

Location: N 48°52' W 123°33'.
View on Google Maps.

See reports from other nearby stations

  
Tides and Currents Weather Stations Pressure Air Temp Water Temp Dewpoint Dewpoint Depression Visibility Wind Speed Wind Dir Waves Ship Positions
date/time (UTC)wind fromknots sea level pressurealtimeterstation pressurevisibilityair tempwater tempwave heightnotes
2020-Aug-06 18:00 184 2 gusting 6 20.0
2020-Aug-06 17:45 300 1 gusting 5 19.4
2020-Aug-06 17:30 255 0 gusting 8 18.3
2020-Aug-06 17:15 269 0 gusting 7 17.8
2020-Aug-06 17:00 282 0 gusting 4 17.2
2020-Aug-06 16:45 287 0 gusting 2 17.2
2020-Aug-06 16:30 280 16.7
2020-Aug-06 16:15 261 16.1
2020-Aug-06 16:00 286 16.1
2020-Aug-06 15:46 319 15.6
2020-Aug-06 15:30 227 15.6
2020-Aug-06 15:16 034 15.0
2020-Aug-06 15:02 030 0 gusting 2 15.0
2020-Aug-06 14:46 131 15.0
2020-Aug-06 14:31 131 15.0
2020-Aug-06 14:17 109 15.0
2020-Aug-06 14:02 071 15.0
2020-Aug-06 13:46 072 0 gusting 1 15.0
2020-Aug-06 13:32 103 0 gusting 2 15.0
2020-Aug-06 13:18 080 15.0
2020-Aug-06 13:01 074 15.0
2020-Aug-06 12:46 074 14.4
2020-Aug-06 12:31 073 14.4
2020-Aug-06 12:16 072 0 gusting 2 14.4
2020-Aug-06 12:01 107 0 gusting 2 14.4
2020-Aug-06 11:46 092 0 gusting 2 14.4
2020-Aug-06 11:31 090 14.4
2020-Aug-06 11:17 103 0 gusting 3 14.4
2020-Aug-06 11:01 111 2 gusting 5 15.0
2020-Aug-06 10:45 115 0 gusting 2 15.6
2020-Aug-06 10:30 007 16.7
2020-Aug-06 10:15 007 17.2
2020-Aug-06 10:00 298 18.3
2020-Aug-06 09:45 249 0 gusting 5 19.4
2020-Aug-06 09:30 209 0 gusting 5 19.4
2020-Aug-06 09:15 004 0 gusting 9 20.0
2020-Aug-06 09:00 282 2 gusting 8 19.4
2020-Aug-06 08:45 305 0 gusting 6 19.4
2020-Aug-06 08:30 281 1 gusting 6 19.4
2020-Aug-06 08:15 280 1 gusting 8 19.4
2020-Aug-06 08:00 317 0 gusting 6 19.4
2020-Aug-06 07:45 250 2 gusting 12 19.4
2020-Aug-06 07:30 152 4 gusting 13 20.0
2020-Aug-06 07:15 317 0 gusting 8 20.0
2020-Aug-06 07:00 203 4 gusting 13 20.0
2020-Aug-06 06:45 352 3 gusting 13 20.0
2020-Aug-06 06:30 332 2 gusting 7 19.4
2020-Aug-06 06:15 294 0 gusting 13 19.4
2020-Aug-06 06:00 273 1 gusting 10 19.4
2020-Aug-06 05:45 159 5 gusting 13 20.0
2020-Aug-06 05:30 285 4 gusting 15 20.0
2020-Aug-06 05:16 232 6 gusting 16 20.6
2020-Aug-06 05:03 283 2 gusting 12 20.6
2020-Aug-06 04:46 166 4 gusting 9 21.1
2020-Aug-06 04:31 170 2 gusting 13 21.1
2020-Aug-06 04:16 211 2 gusting 12 21.7
2020-Aug-06 04:02 292 1 gusting 13 22.2
2020-Aug-06 03:46 236 2 gusting 6 22.2
2020-Aug-06 03:31 143 0 gusting 3 22.8
2020-Aug-06 03:16 296 23.3
2020-Aug-06 03:01 188 3 gusting 10 23.3
2020-Aug-06 02:46 311 23.9
2020-Aug-06 02:31 338 0 gusting 8 24.4
2020-Aug-06 02:16 299 0 gusting 2 25.0
2020-Aug-06 02:04 120 22.8
2020-Aug-06 01:46 108 2 gusting 5 23.3
2020-Aug-06 01:31 114 1 gusting 3 23.9
2020-Aug-06 01:16 107 1 gusting 3 23.9
2020-Aug-06 01:01 115 1 gusting 2 23.9
2020-Aug-06 00:46 123 0 gusting 3 23.9
2020-Aug-06 00:31 101 0 gusting 6 25.0
2020-Aug-06 00:17 092 3 gusting 6 25.0
2020-Aug-06 00:02 113 4 gusting 6 24.4
2020-Aug-05 23:45 111 5 gusting 7 25.0
2020-Aug-05 23:31 117 5 gusting 7 24.4
2020-Aug-05 23:16 100 4 gusting 6 25.0
2020-Aug-05 23:01 107 3 gusting 6 24.4
2020-Aug-05 22:45 089 4 gusting 8 25.0
2020-Aug-05 22:30 113 2 gusting 6 25.6
2020-Aug-05 22:15 119 5 gusting 8 25.0
2020-Aug-05 22:00 110 3 gusting 7 25.0
2020-Aug-05 21:45 130 5 gusting 7 24.4
2020-Aug-05 21:30 112 5 gusting 7 25.0
2020-Aug-05 21:15 108 5 gusting 8 24.4
2020-Aug-05 21:00 064 4 gusting 8 23.9
2020-Aug-05 20:45 113 6 gusting 8 23.9
2020-Aug-05 20:30 097 4 gusting 7 23.9
2020-Aug-05 20:15 140 5 gusting 6 23.9
2020-Aug-05 20:00 107 4 gusting 7 23.9
2020-Aug-05 19:45 117 3 gusting 6 24.4
2020-Aug-05 19:30 077 3 gusting 6 23.3
2020-Aug-05 19:17 122 3 gusting 6 22.8
2020-Aug-05 19:01 124 3 gusting 5 22.8
2020-Aug-05 18:46 116 3 gusting 6 22.8
2020-Aug-05 18:31 122 3 gusting 6 22.2
2020-Aug-05 18:16 118 2 gusting 6 21.7
2020-Aug-05 18:01 120 2 gusting 5 21.1
2020-Aug-05 17:45 097 3 gusting 5 20.6
2020-Aug-05 17:30 107 3 gusting 4 19.4
2020-Aug-05 17:15 119 3 gusting 5 18.9
2020-Aug-05 17:00 122 2 gusting 5 18.3
2020-Aug-05 16:45 117 2 gusting 4 17.8
2020-Aug-05 16:30 115 2 gusting 5 17.8
2020-Aug-05 16:16 109 2 gusting 4 17.8
2020-Aug-05 16:00 119 2 gusting 3 17.2
2020-Aug-05 15:45 114 1 gusting 3 17.2
2020-Aug-05 15:30 118 2 gusting 3 16.7
2020-Aug-05 15:15 110 0 gusting 2 16.7
2020-Aug-05 15:00 116 1 gusting 2 16.1
2020-Aug-05 14:45 113 1 gusting 3 15.6
2020-Aug-05 14:30 115 1 gusting 3 15.6
2020-Aug-05 14:15 115 0 gusting 2 15.0
2020-Aug-05 14:00 115 1 gusting 2 14.4
2020-Aug-05 13:45 115 0 gusting 2 14.4
2020-Aug-05 13:30 118 14.4
2020-Aug-05 13:19 118 0 gusting 2 14.4
2020-Aug-05 13:02 118 1 gusting 2 14.4
2020-Aug-05 12:46 118 0 gusting 2 14.4
2020-Aug-05 12:32 118 0 gusting 2 14.4
2020-Aug-05 12:16 118 0 gusting 2 14.4
2020-Aug-05 12:01 118 0 gusting 2 15.0
2020-Aug-05 11:46 118 0 gusting 1 15.0
2020-Aug-05 11:31 118 0 gusting 1 15.0
2020-Aug-05 11:16 118 0 gusting 2 15.0
2020-Aug-05 11:01 118 0 gusting 1 15.6
2020-Aug-05 10:46 118 0 gusting 1 15.6
2020-Aug-05 10:31 118 0 gusting 2 15.6
2020-Aug-05 10:16 118 0 gusting 1 16.1
2020-Aug-05 10:01 118 0 gusting 2 15.6
2020-Aug-05 09:45 118 0 gusting 2 15.6
2020-Aug-05 09:31 118 0 gusting 1 16.1
2020-Aug-05 09:16 118 0 gusting 1 16.1
2020-Aug-05 09:00 118 0 gusting 1 16.1
2020-Aug-05 08:46 118 16.7
2020-Aug-05 08:30 118 0 gusting 2 16.7
2020-Aug-05 08:15 118 0 gusting 1 16.7
2020-Aug-05 08:01 118 17.2
2020-Aug-05 07:45 118 0 gusting 1 17.2
2020-Aug-05 07:30 112 1 gusting 3 17.2
2020-Aug-05 07:16 106 1 gusting 2 17.2
2020-Aug-05 07:00 117 1 gusting 3 17.2
2020-Aug-05 06:45 125 1 gusting 2 17.8
2020-Aug-05 06:30 107 0 gusting 2 17.8
2020-Aug-05 06:15 112 1 gusting 2 17.8
2020-Aug-05 06:00 098 0 gusting 2 18.3
2020-Aug-05 05:45 094 0 gusting 1 18.3
2020-Aug-05 05:30 094 0 gusting 1 18.9
2020-Aug-05 05:15 094 0 gusting 1 18.9
2020-Aug-05 05:00 094 19.4
2020-Aug-05 04:45 094 0 gusting 2 19.4
2020-Aug-05 04:30 094 20.0
2020-Aug-05 04:15 094 0 gusting 2 20.0
2020-Aug-05 04:00 093 0 gusting 2 20.6
2020-Aug-05 03:45 093 0 gusting 2 21.1
2020-Aug-05 03:30 093 0 gusting 2 21.7
2020-Aug-05 03:15 090 0 gusting 2 22.2
2020-Aug-05 03:00 094 0 gusting 2 22.2
2020-Aug-05 02:45 117 1 gusting 2 22.2
2020-Aug-05 02:30 115 1 gusting 3 22.8
2020-Aug-05 02:15 117 1 gusting 3 23.3
2020-Aug-05 01:46 100 3 gusting 5 23.3
2020-Aug-05 01:32 119 2 gusting 5 24.4
2020-Aug-05 01:16 117 2 gusting 3 25.0
2020-Aug-05 01:01 121 2 gusting 3 25.6
2020-Aug-05 00:46 134 27.2
2020-Aug-05 00:31 251 27.8
2020-Aug-05 00:18 251 28.3
2020-Aug-05 00:01 250 0 gusting 3 27.8
2020-Aug-04 23:46 231 28.3
2020-Aug-04 23:31 244 0 gusting 6 28.9
2020-Aug-04 23:16 257 28.9
2020-Aug-04 23:01 245 28.9
2020-Aug-04 22:45 245 0 gusting 1 28.9
2020-Aug-04 22:30 245 0 gusting 1 28.3
2020-Aug-04 22:16 244 0 gusting 1 28.9
2020-Aug-04 22:00 256 0 gusting 1 28.3
2020-Aug-04 21:45 263 0 gusting 2 28.3
2020-Aug-04 21:30 246 28.3
2020-Aug-04 21:16 244 28.3
2020-Aug-04 21:00 228 27.8
2020-Aug-04 20:46 245 27.8
2020-Aug-04 20:30 250 27.8
2020-Aug-04 20:15 249 27.8
2020-Aug-04 20:00 249 0 gusting 2 27.2
2020-Aug-04 19:45 286 26.7
2020-Aug-04 19:30 286 0 gusting 2 26.7
2020-Aug-04 19:15 267 0 gusting 4 26.1
2020-Aug-04 19:00 254 26.1